Location: Huppendorf
(49.9333°N, 11.1500°E)
Time: 09:13:28
(UTC+00:00)

GP-B - Pass Details

Date: 27 February 2020
Orbit: 631 x 635 km, 89.8° (Epoch: 03 April)

Event Time Altitude Azimuth Distance (km) Brightness Sun altitude
Exits shadow 19:01:29 35° 41° (NE) 1,031 3.9 -21.3°
Drops below altitude 10° 19:04:32 10° 10° (N) 2,035 5.7 -21.8°
Sets 19:06:50 0° 4° (N) 2,949 6.7 -22.1°
